Location: Elmsmere
(40.9284°N, 73.8207°W)
Time: 07:22:11
(UTC+00:00)

Lacrosse 5 - Pass Details

Date: 29 October 2020
Orbit: 714 x 725 km, 57.0° (Epoch: 30 November)

Event Time Altitude Azimuth Distance (km) Brightness Sun altitude
Rises 23:09:49 0° 313° (NW) 3,119 5.8 -14.8°
Reaches altitude 10° 23:13:30 10° 340° (NNW) 2,198 4.6 -15.5°
Maximum altitude 23:15:57 13° 9° (N) 1,970 4.0 -15.9°
Enters shadow 23:17:50 11° 32° (NNE) 2,106 3.9 -16.3°
